Simultaneous Nadir Overpasses (SNOs) Predictions

Prediction of SNOs between AQUA and NOAA-19 Satellite Orbit:

Table of predicted SNOs for the next 14.0 days since TLE Epoch: 7/13/2013
Index Date (AQUA) Time (AQUA) Lat,Lon (AQUA) SZA (AQUA ) Date (NOAA-19) Time (NOAA-19) Lat,Lon (NOAA-19) SZA (NOAA-19 ) Distance(km) Time Diff (sec)
1 07/13/2013 03:27:24 -50.42, -37.90 149.90 07/13/2013 03:27:22 -50.42, -37.88 149.90 0.88 2
2 07/15/2013 08:11:47 -50.82,-109.14 149.27 07/15/2013 08:11:47 -50.81,-109.13 149.27 0.52 0
3 07/17/2013 12:56:09 -51.16, 179.64 148.64 07/17/2013 12:56:11 -51.16, 179.64 148.64 0.18 2
4 07/19/2013 17:03:22 79.44, 178.35 72.77 07/19/2013 17:02:10 78.77,-179.00 72.58 93.63 72
5 07/19/2013 17:40:32 -51.57, 108.39 147.92 07/19/2013 17:40:36 -51.57, 108.39 147.92 0.21 4
6 07/21/20
